TimeCST,TemperatureF,Dew PointF,Humidity,Sea Level PressureIn,VisibilityMPH,Wind Direction,Wind SpeedMPH,Gust SpeedMPH,PrecipitationIn,Events,Conditions,WindDirDegrees,DateUTC
12:53 AM,19.0,15.1,85,30.38,10.0,Calm,Calm,-,N/A,,Clear,0,2011-12-24 06:53:00
1:53 AM,18.0,14.0,84,30.38,10.0,SSW,6.9,-,N/A,,Clear,200,2011-12-24 07:53:00
2:53 AM,19.9,15.1,81,30.38,10.0,SW,8.1,-,N/A,,Clear,220,2011-12-24 08:53:00
3:53 AM,19.9,14.0,78,30.38,10.0,SW,4.6,-,N/A,,Clear,230,2011-12-24 09:53:00
4:53 AM,16.0,12.0,84,30.39,10.0,SSW,3.5,-,N/A,,Clear,210,2011-12-24 10:53:00
5:53 AM,17.1,12.9,84,30.40,10.0,SSW,5.8,-,N/A,,Clear,200,2011-12-24 11:53:00
6:53 AM,16.0,12.9,88,30.41,10.0,SSW,4.6,-,N/A,,Clear,200,2011-12-24 12:53:00
7:53 AM,17.1,12.9,84,30.41,10.0,South,4.6,-,N/A,,Clear,180,2011-12-24 13:53:00
8:53 AM,21.0,15.1,78,30.45,10.0,Calm,Calm,-,N/A,,Clear,0,2011-12-24 14:53:00
9:53 AM,23.0,16.0,74,30.47,10.0,Calm,Calm,-,N/A,,Clear,0,2011-12-24 15:53:00
10:53 AM,28.9,19.0,67,30.48,10.0,NNW,4.6,-,N/A,,Clear,340,2011-12-24 16:53:00
11:53 AM,30.9,19.9,64,30.44,10.0,Calm,Calm,-,N/A,,Clear,0,2011-12-24 17:53:00
12:53 PM,36.0,21.9,57,30.40,10.0,Calm,Calm,-,N/A,,Clear,0,2011-12-24 18:53:00
1:53 PM,37.0,25.0,62,30.38,10.0,NW,8.1,-,N/A,,Clear,320,2011-12-24 19:53:00
2:53 PM,37.0,25.0,62,30.38,10.0,West,5.8,-,N/A,,Clear,280,2011-12-24 20:53:00
3:53 PM,36.0,25.0,64,30.38,10.0,SSW,6.9,-,N/A,,Clear,210,2011-12-24 21:53:00
4:53 PM,35.1,25.0,67,30.41,10.0,West,4.6,-,N/A,,Clear,260,2011-12-24 22:53:00
5:53 PM,30.9,25.0,79,30.43,10.0,SSW,10.4,-,N/A,,Clear,210,2011-12-24 23:53:00
6:53 PM,30.0,24.1,79,30.43,10.0,SW,9.2,-,N/A,,Clear,230,2011-12-25 00:53:00
7:53 PM,28.9,21.9,75,30.43,10.0,WSW,12.7,-,N/A,,Clear,240,2011-12-25 01:53:00
8:53 PM,27.0,21.0,78,30.43,10.0,WSW,6.9,-,N/A,,Clear,240,2011-12-25 02:53:00
9:53 PM,28.0,21.0,75,30.43,10.0,SW,9.2,-,N/A,,Clear,230,2011-12-25 03:53:00
10:53 PM,27.0,21.0,78,30.43,10.0,West,3.5,-,N/A,,Clear,270,2011-12-25 04:53:00
11:53 PM,26.1,21.0,81,30.43,10.0,SSW,4.6,-,N/A,,Clear,200,2011-12-25 05:53:00